Location: Kornwestheim
(48.8605°N, 9.1885°E)
Time: 05:09:36
(UTC+00:00)

Daily predictions for brighter satellites

Satellite Brightness Start Highest point End
(mag) Time Altitude Azimuth Time Altitude Azimuth Time Altitude Azimuth
Geosat 4.1 00:06:04 71° ENE 00:06:10 71° ENE 00:11:11 10° NNW
Cosmos 1943 Rocket 3.2 00:02:17 10° NNW 00:07:42 43° NE 00:10:24 26° ESE
SL-16 R/B 4.2 00:06:04 14° W 00:09:23 22° NW 00:13:43 10° N
ATLAS 5 CENTAUR R/B 3.4 00:07:22 10° NNW 00:11:37 34° NE 00:16:43 10° ESE
RESURS DK-1 3.7 00:13:30 36° NE 00:13:30 36° NE 00:16:05 10° NE
Cosmos 972 Rocket 4.0 00:12:33 78° N 00:12:33 78° N 00:17:12 10° NNE
Meteor 1-14 Rocket 4.1 00:08:27 10° N 00:14:02 78° ENE 00:14:22 75° ESE
Okean 3 Rocket 4.1 00:11:37 10° N 00:15:30 59° NNE 00:15:30 59° NNE
Cosmos 1867 4.5 00:11:46 10° NW 00:15:26 37° WNW 00:15:26 37° WNW
NOSS 2-2 (D) 4.2 00:14:54 10° NW 00:18:12 57° NW 00:18:12 57° NW
MOZ.5/SAFIR/RUBIN 5/SL-8 4.3 00:20:51 50° E 00:21:10 51° ENE 00:25:47 10° N
CZ-2C R/B 4.4 00:18:46 14° ESE 00:22:14 27° ENE 00:26:38 10° N
Sich 1 4.5 00:20:33 10° N 00:24:19 30° ENE 00:24:45 29° E
Cosmos 1842 Rocket 4.0 00:27:31 59° NE 00:27:31 59° NE 00:31:22 10° NNE
Cosmos 2344 4.0 00:21:18 10° NW 00:29:37 89° SW 00:41:11 10° SE
Cosmos 192 4.3 00:26:06 10° NNW 00:30:51 78° NE 00:30:51 78° NE
Tsikada Rocket 4.4 00:30:35 43° W 00:31:23 45° WNW 00:37:17 10° N
USA 215 3.6 00:27:20 10° ENE 00:33:35 45° SE 00:34:07 44° SSE
Cosmos 1536 3.8 00:32:25 10° N 00:35:23 44° NNE 00:35:23 44° NNE
Cosmos 1500 Rocket 4.1 00:34:45 10° N 00:39:06 51° ENE 00:39:12 51° E
Lacrosse 5 3.3 00:35:37 13° WNW 00:39:38 35° N 00:44:20 10° ENE
Cosmos 1805 Rocket 4.4 00:36:37 10° N 00:40:46 43° ENE 00:41:03 42° E
Meteor 1-11 Rocket 3.8 00:35:53 10° N 00:41:25 68° ENE 00:42:35 53° SE
ATLAS 3B R/B 4.2 00:37:40 10° NW 00:45:00 42° NNE 00:52:23 10° E
NOSS 0 Rocket 3.8 00:45:55 65° SSW 00:46:53 85° ESE 00:53:06 10° NNE
H-2A R/B 4.4 00:55:15 10° NNW 00:57:17 13° WNW 00:57:39 13° WNW
Gbstr 26 Del rocket 3.4 00:57:32 54° NW 00:58:07 60° N 01:02:06 10° ENE
Meteor 2-17 Rocket 4.5 00:57:56 50° SSE 00:59:32 73° E 01:05:38 10° NNE
Cosmos 2369 Rocket 4.1 00:55:39 10° NNW 01:00:28 28° NE 01:05:15 10° ESE
Cosmos 2237 Rocket 2.1 00:59:39 64° S 01:00:32 79° ESE 01:06:15 10° NNE
IDEFIX/ARIANE 42P 2.9 00:57:42 10° NNE 01:02:50 57° E 01:03:55 48° SE
Cosmos 1980 3.6 01:02:36 64° SSW 01:03:30 87° ESE 01:09:12 10° NNE
CZ-2C R/B 4.4 01:03:37 10° NNE 01:08:29 34° E 01:10:56 24° SE
CZ-2D R/B 2.7 01:03:28 10° NNE 01:08:44 51° E 01:10:23 38° SSE
USA 267 3.3 01:02:44 10° ESE 01:09:14 81° NNE 01:15:47 10° NW
Cosmos 1151 Rocket 3.6 01:10:36 44° ESE 01:11:10 47° E 01:15:22 10° NNE
Cosmos 921 Rocket 4.2 01:11:48 31° ESE 01:12:28 33° E 01:16:26 10° NE
USA 308 3.3 01:14:03 46° ENE 01:14:03 46° ENE 01:16:57 10° ENE
Cosmos 1975 4.3 01:10:12 10° N 01:13:42 31° ENE 01:15:11 24° ESE
Cosmos 2360 Rocket 4.5 01:11:20 10° WNW 01:14:46 16° NW 01:18:14 10° N
COSMOS 2428 3.6 01:13:37 33° W 01:15:13 40° NW 01:20:35 10° NNE
Meteor 2-9 Rocket 4.0 01:10:37 10° NNW 01:16:06 86° W 01:17:36 51° S
Cosmos 1743 Rocket 3.3 01:12:53 10° N 01:17:13 86° W 01:17:16 86° WSW
Cosmos 1726 4.1 01:16:53 10° NNW 01:17:56 18° NW 01:17:56 18° NW
Resurs 1-4 Rocket 2.3 01:15:28 10° NNE 01:20:45 66° ESE 01:22:17 45° SSE
Cosmos 2112 Rocket 4.3 01:19:51 46° SSE 01:21:12 62° ESE 01:26:30 10° NNE
Cosmos 2219 Rocket 4.0 01:23:11 15° WNW 01:26:02 21° NW 01:30:14 10° N
BREEZE-M DEB (TANK) 3.5 01:27:27 25° ENE 01:27:27 25° ENE 01:28:23 10° ENE
FENGYUN 3A 4.4 01:24:57 10° NNE 01:30:10 46° E 01:32:48 26° SSE
Meteor 1-19 Rocket 4.3 01:28:26 44° SSW 01:30:29 88° WNW 01:36:35 10° NNE
Cosmos 2278 Rocket 3.2 01:28:18 10° NW 01:32:30 30° W 01:32:30 30° W
USA 290 2.8 01:36:47 10° NNW 01:40:00 57° ENE 01:40:17 54° E
COBE Rocket 3.6 01:37:26 10° NNE 01:42:05 85° WNW 01:43:15 51° SSW
Meteor 2-10 4.3 01:36:52 10° NNW 01:42:29 59° W 01:44:15 41° SSW
Cosmos 1420 Rocket 4.0 01:37:34 10° NNW 01:42:46 60° WSW 01:44:11 44° SSW
Cosmos 1680 Rocket 3.5 01:42:34 46° SW 01:44:09 77° WNW 01:49:30 10° NNE
ADEOS II 2.3 01:39:47 10° NNE 01:45:02 68° ESE 01:47:24 33° S
Cosmos 2195 Rocket 4.5 01:44:51 38° SSW 01:47:25 72° W 01:53:39 10° N
Meteor 1-28 Rocket 3.1 01:49:06 52° SSE 01:49:54 80° ENE 01:53:34 10° N
RESURS DK-1 4.3 01:49:06 17° WNW 01:50:12 19° NW 01:53:10 10° N
Cosmos 1943 Rocket 2.7 01:46:13 10° NW 01:51:22 37° WSW 01:51:51 36° WSW
Nadezhda 4 Rocket 4.5 01:50:48 33° WSW 01:52:48 43° WNW 01:58:38 10° N
ATLAS 2AS CENTAUR R/B 2.8 01:49:36 33° SSW 01:53:16 82° SE 02:00:26 10° NE
ATLAS 5 CENTAUR R/B 2.1 01:50:55 10° NW 01:55:48 59° SW 02:01:50 10° SSE
Cosmos 2056 Rocket 3.6 01:51:09 10° NNW 01:56:27 55° WSW 01:58:37 33° SSW
SL-16 R/B 2.3 01:54:58 33° S 01:57:36 71° ESE 02:03:15 10° NNE
Sich 1 4.0 01:58:02 10° NNW 02:01:28 28° W 02:01:28 28° W
CZ-2C R/B 2.8 02:00:14 34° SSW 02:02:14 52° W 02:07:25 10° NNW
Cosmos 1340 Rocket 2.6 02:01:32 53° SW 02:02:21 74° WNW 02:06:18 10° N
Cosmos 1452 Rocket 4.1 01:57:37 10° NNW 02:02:50 58° ENE 02:07:59 10° SE
GP-B 3.2 01:58:32 10° N 02:02:51 55° W 02:03:57 42° SW
Meteor 1-27 Rocket 4.1 02:01:01 33° WSW 02:03:05 48° WNW 02:08:31 10° N
GEOS 3 Rocket 3.6 01:58:59 10° SSE 02:04:17 63° SW 02:09:34 10° NW
Iridium 45 4.4 02:04:13 52° S 02:05:00 88° E 02:08:28 10° N
SL-16 R/B 2.5 02:00:25 13° SSE 02:05:59 78° WSW 02:12:16 10° NNW
Cosmos 1624 Rocket 4.3 02:01:22 10° NNW 02:06:20 45° WSW 02:08:03 33° SSW
Meteor 1-18 Rocket 4.4 02:03:10 23° S 02:06:50 75° E 02:12:40 10° NNE
ALOS 2.6 02:02:51 10° NNE 02:07:27 60° E 02:10:17 22° S
NPP 4.2 02:04:52 10° N 02:09:58 44° WNW 02:12:10 29° WSW
Envisat 4.5 02:05:38 10° NNE 02:10:12 33° E 02:14:44 10° SSE
Cosmos 1470 Rocket 3.9 02:06:14 10° N 02:10:40 67° E 02:15:02 10° SSE
Cosmos 1340 2.4 02:07:29 10° NNW 02:10:50 53° W 02:10:59 53° WSW
NOSS 3-1 (A) 4.1 02:04:19 10° NW 02:11:33 89° NE 02:20:23 10° SE
SOZ 4.3 02:12:37 72° SSW 02:12:48 79° SSE 02:15:38 10° ENE
Cosmos 1805 3.4 02:09:32 10° NNW 02:13:04 44° W 02:13:21 43° WSW
USA 215 3.4 02:10:19 10° NE 02:16:51 73° NNW 02:21:28 21° WSW
Cosmos 1331 Rocket 4.3 02:14:30 10° NNW 02:19:49 70° ENE 02:25:05 10° SSE
Intercosmos 25 Rocket 3.8 02:16:02 10° NNW 02:20:00 74° W 02:26:13 10° S
Cosmos 1666 Rocket 3.8 02:18:58 10° NNW 02:23:15 49° W 02:25:08 29° SSW
Lacrosse 5 3.3 02:18:50 10° NW 02:23:37 38° NNE 02:28:23 10° E
Cosmos 1553 Rocket 3.9 02:18:01 10° NNW 02:24:14 71° W 02:30:02 11° S
NOSS 3-1 (C) 4.3 02:22:16 10° NW 02:29:21 50° WSW 02:37:48 10° SSE
Cosmos 1674 3.6 02:28:15 12° SSE 02:31:10 40° E 02:34:25 10° NNE
ATLAS 3B R/B 2.9 02:28:36 10° NW 02:36:25 75° SW 02:44:08 10° SSE
Cosmos 1933 Rocket 3.9 02:33:10 10° N 02:37:31 66° E 02:41:48 10° SSE
Cosmos 1656 Rocket 3.7 02:35:11 10° NW 02:40:26 52° WSW 02:45:40 10° S
Cosmos 1470 3.3 02:37:56 10° N 02:41:42 58° ENE 02:45:26 10° SSE
IDEFIX/ARIANE 42P 3.9 02:37:52 10° N 02:42:01 25° WNW 02:44:41 17° W
Cosmos 2315 Rocket 4.5 02:36:06 10° N 02:42:15 64° ENE 02:48:25 10° SSE
Cosmos 1328 Rocket 4.0 02:41:11 24° SW 02:43:33 46° WNW 02:47:50 10° N
Cosmos 1626 2.1 02:42:32 29° SW 02:43:48 47° WNW 02:47:01 10° N
Cosmos 2369 Rocket 2.1 02:39:22 10° NNW 02:44:54 62° WSW 02:50:23 10° SSE
Gbstr 26 Del rocket 2.9 02:40:43 10° WNW 02:44:59 74° NNE 02:48:45 10° ESE
Cosmos 2237 Rocket 3.7 02:41:27 13° W 02:45:15 24° NW 02:49:50 10° N
USA 308 3.5 02:42:30 15° W 02:45:19 43° NNW 02:49:05 10° ENE
Cosmos 1066 Rocket 4.1 02:40:40 15° SSW 02:45:19 82° WNW 02:50:57 10° N
ISS -1.3 02:44:10 10° S 02:46:00 14° SE 02:47:53 10° ESE
CZ-2C R/B 3.8 02:43:25 10° N 02:48:21 41° WNW 02:51:57 18° SW
CZ-2D R/B 3.3 02:43:55 10° N 02:48:30 29° WNW 02:51:41 17° WSW
Cosmos 1975 4.0 02:46:24 10° NW 02:49:28 23° W 02:50:22 21° WSW
Cosmos 921 Rocket 4.2 02:48:29 19° WSW 02:50:41 29° WNW 02:54:35 10° N
KORONAS-FOTON 4.1 02:47:45 10° S 02:51:21 61° E 02:54:56 10° NNE
USA 267 3.6 02:46:40 10° SSE 02:52:38 38° SW 02:58:39 10° WNW
Cosmos 1633 Rocket 3.9 02:48:57 10° NNW 02:52:45 30° W 02:55:02 19° SW
Cosmos 2297 4.1 02:48:02 10° NW 02:53:24 41° WSW 02:58:44 10° S
Cosmos 44 3.9 02:54:38 10° NW 02:59:39 62° NE 03:04:19 10° SE
Resurs 1-4 Rocket 3.6 02:56:05 10° N 03:00:04 22° WNW 03:03:21 13° WSW
Cosmos 1766 3.8 03:00:57 10° NNW 03:04:19 34° W 03:07:19 12° SSW
STPSAT 2 (USA 217) 4.5 03:00:46 10° NNW 03:05:16 76° WSW 03:09:42 10° SSE
Cosmos 494 Rocket 4.5 03:02:00 16° SW 03:05:48 44° WNW 03:10:43 10° NNE
Iridium 51 4.3 03:05:13 15° SSW 03:07:47 45° W 03:11:08 10° N
Cosmos 1943 3.3 03:03:52 10° SSW 03:09:33 82° ESE 03:15:17 10° NNE
Cosmos 1048 Rocket 4.4 03:09:34 13° SW 03:14:03 50° WNW 03:19:08 10° NNE
Cosmos 2263 4.4 03:09:04 10° NW 03:14:29 49° WSW 03:19:54 10° S
Thor Agena Rocket 3.6 03:09:35 10° NNE 03:14:40 78° ESE 03:19:45 10° SSW
CZ-2C R/B 2.5 03:15:16 10° NNE 03:20:28 84° WNW 03:25:34 10° SSW
H-2A R/B 3.6 03:17:20 10° NNE 03:22:02 36° E 03:26:49 10° SSE
ADEOS II 3.6 03:20:17 10° N 03:24:11 22° WNW 03:28:04 10° WSW
PAYLOAD A 3.8 03:20:11 10° NNE 03:25:02 87° WNW 03:29:45 10° SSW
USA 306 3.8 03:22:25 10° SSW 03:25:49 32° SE 03:28:58 10° ENE
Cosmos 1707 2.8 03:28:02 10° SSW 03:31:37 51° WNW 03:35:14 10° N
IRS-1D 3.6 03:27:31 10° NNE 03:32:41 78° WNW 03:37:55 10° SSW
Cosmos 1302 Rocket 4.0 03:27:48 10° NNW 03:32:57 64° WSW 03:38:03 10° S
CZ-4 R/B 4.3 03:29:07 10° N 03:33:33 42° WNW 03:37:55 10° SW
Cosmos 1484 Rocket 4.0 03:31:31 10° NNE 03:34:55 39° E 03:38:18 10° S
Cosmos 1842 3.9 03:32:34 10° SW 03:36:00 34° WNW 03:39:28 10° N
Meteor 2-10 Rocket 4.1 03:31:45 10° N 03:37:11 71° ENE 03:42:47 10° SSE
Lacrosse 5 rocket 4.0 03:36:15 10° SSE 03:38:04 13° ESE 03:39:50 10° E
YAOGAN 6 2.7 03:34:58 10° N 03:38:10 48° WNW 03:41:23 10° SSW
ATLAS 5 CENTAUR R/B 3.9 03:37:23 10° W 03:39:13 12° WSW 03:41:09 10° SW
Cosmos 2266 Rocket 4.4 03:33:38 10° SW 03:39:21 43° WNW 03:45:05 10° N
In-Cosmos 22 4.2 03:34:46 10° SSW 03:40:18 85° WNW 03:46:01 10° N
Cosmos 1603 3.8 03:35:53 10° SSW 03:41:30 88° WNW 03:47:12 10° NNE
SL-16 R/B 3.5 03:37:34 10° W 03:42:15 26° NW 03:46:59 10° NNE
ALOS 3.8 03:40:55 10° NNW 03:44:16 20° WNW 03:47:35 10° WSW
ATLAS 2AS CENTAUR R/B 3.8 03:38:12 10° W 03:44:55 37° NNW 03:51:22 10° NE
Meteor 1-12 Rocket 4.3 03:39:19 10° NNW 03:45:00 85° WSW 03:50:43 10° S
